Time,TemperatureF,DewpointF,PressureIn,WindDirection,WindDirectionDegrees,WindSpeedMPH,WindSpeedGustMPH,Humidity,HourlyPrecipIn,Conditions,Clouds,dailyrainin,SoftwareType,DateUTC
2014-10-31 00:02:00,54.5,54.0,30.17,SSW,210,1.0,2.0,99,0.00,,,0.01,weatherlink.com 1.10,2014-10-30 23:02:00,
2014-10-31 00:17:00,54.1,54.0,30.17,South,188,0.0,2.0,99,0.00,,,0.01,weatherlink.com 1.10,2014-10-30 23:17:00,
2014-10-31 00:32:00,53.7,54.0,30.18,ESE,115,0.0,1.0,99,0.00,,,0.01,weatherlink.com 1.10,2014-10-30 23:32:00,
2014-10-31 00:47:00,53.3,53.0,30.18,SSE,150,0.0,1.0,99,0.00,,,0.01,weatherlink.com 1.10,2014-10-30 23:47:00,
2014-10-31 01:02:00,53.1,53.0,30.17,SE,136,1.0,2.0,99,0.00,,,0.00,weatherlink.com 1.10,2014-10-31 00:02:00,
2014-10-31 01:17:00,52.9,53.0,30.18,South,190,0.0,2.0,99,0.00,,,0.00,weatherlink.com 1.10,2014-10-31 00:17:00,
2014-10-31 01:32:00,52.5,52.0,30.17,SW,218,0.0,2.0,99,0.00,,,0.00,weatherlink.com 1.10,2014-10-31 00:32:00,
2014-10-31 01:47:00,52.4,52.0,30.16,SE,134,0.0,3.0,99,0.00,,,0.00,weatherlink.com 1.10,2014-10-31 00:47:00,
2014-10-31 02:02:00,52.3,52.0,30.16,SSE,152,2.0,4.0,99,0.00,,,0.00,weatherlink.com 1.10,2014-10-31 01:02:00,
2014-10-31 02:17:00,52.2,52.0,30.16,SE,127,0.0,3.0,99,0.00,,,0.00,weatherlink.com 1.10,2014-10-31 01:17:00,
2014-10-31 02:33:00,51.9,52.0,30.16,SE,146,0.0,3.0,99,0.00,,,0.00,weatherlink.com 1.10,2014-10-31 01:33:00,
2014-10-31 02:48:00,51.7,52.0,30.16,SSW,203,0.0,2.0,100,0.00,,,0.00,weatherlink.com 1.10,2014-10-31 01:48:00,
2014-10-31 03:03:00,51.4,51.0,30.16,SSW,212,0.0,2.0,99,0.00,,,0.00,weatherlink.com 1.10,2014-10-31 02:03:00,
2014-10-31 03:17:00,51.2,51.0,30.16,South,187,0.0,3.0,100,0.00,,,0.00,weatherlink.com 1.10,2014-10-31 02:17:00,
2014-10-31 03:33:00,51.1,51.0,30.15,SE,139,0.0,3.0,100,0.00,,,0.00,weatherlink.com 1.10,2014-10-31 02:33:00,
2014-10-31 03:48:00,51.0,51.0,30.15,SSE,167,0.0,3.0,100,0.00,,,0.00,weatherlink.com 1.10,2014-10-31 02:48:00,
2014-10-31 04:03:00,50.7,51.0,30.15,SSE,166,0.0,2.0,100,0.00,,,0.00,weatherlink.com 1.10,2014-10-31 03:03:00,
2014-10-31 04:18:00,50.8,51.0,30.15,SSE,155,0.0,3.0,100,0.00,,,0.00,weatherlink.com 1.10,2014-10-31 03:18:00,
2014-10-31 04:33:00,50.7,51.0,30.14,SSE,148,1.0,3.0,100,0.01,,,0.01,weatherlink.com 1.10,2014-10-31 03:33:00,
2014-10-31 04:48:00,50.6,51.0,30.15,SE,136,1.0,3.0,100,0.01,,,0.01,weatherlink.com 1.10,2014-10-31 03:48:00,
2014-10-31 05:04:00,50.4,50.0,30.15,SSE,157,0.0,2.0,100,0.01,,,0.01,weatherlink.com 1.10,2014-10-31 04:04:00,
2014-10-31 05:19:00,50.2,50.0,30.14,SSW,210,0.0,2.0,100,0.00,,,0.01,weatherlink.com 1.10,2014-10-31 04:19:00,
2014-10-31 05:34:00,50.1,50.0,30.14,SSW,210,1.0,3.0,100,0.00,,,0.01,weatherlink.com 1.10,2014-10-31 04:34:00,
2014-10-31 05:49:00,50.1,50.0,30.14,SW,231,0.0,3.0,100,0.00,,,0.01,weatherlink.com 1.10,2014-10-31 04:49:00,
2014-10-31 06:04:00,50.1,50.0,30.14,SE,145,1.0,2.0,100,0.00,,,0.01,weatherlink.com 1.10,2014-10-31 05:04:00,
2014-10-31 06:19:00,50.1,50.0,30.14,SE,146,0.0,3.0,100,0.00,,,0.01,weatherlink.com 1.10,2014-10-31 05:19:00,
2014-10-31 06:34:00,50.1,50.0,30.14,SE,131,0.0,2.0,100,0.00,,,0.01,weatherlink.com 1.10,2014-10-31 05:34:00,
2014-10-31 06:49:00,49.9,50.0,30.14,SE,136,0.0,1.0,100,0.00,,,0.01,weatherlink.com 1.10,2014-10-31 05:49:00,
2014-10-31 07:04:00,49.7,50.0,30.15,SE,140,0.0,2.0,100,0.00,,,0.01,weatherlink.com 1.10,2014-10-31 06:04:00,
2014-10-31 07:20:00,49.4,49.0,30.15,SE,134,0.0,1.0,100,0.00,,,0.01,weatherlink.com 1.10,2014-10-31 06:20:00,
2014-10-31 07:35:00,49.2,49.0,30.15,SE,134,0.0,1.0,100,0.00,,,0.01,weatherlink.com 1.10,2014-10-31 06:35:00,
2014-10-31 07:50:00,49.3,49.0,30.16,SE,141,0.0,2.0,100,0.00,,,0.01,weatherlink.com 1.10,2014-10-31 06:50:00,
2014-10-31 08:05:00,49.5,50.0,30.16,SE,139,0.0,2.0,100,0.00,,,0.01,weatherlink.com 1.10,2014-10-31 07:05:00,
2014-10-31 08:20:00,49.7,50.0,30.16,ESE,108,1.0,2.0,100,0.00,,,0.01,weatherlink.com 1.10,2014-10-31 07:20:00,
2014-10-31 08:35:00,50.4,50.0,30.17,SSE,155,0.0,2.0,100,0.00,,,0.01,weatherlink.com 1.10,2014-10-31 07:35:00,
2014-10-31 08:50:00,51.1,51.0,30.17,SE,143,2.0,3.0,100,0.00,,,0.01,weatherlink.com 1.10,2014-10-31 07:50:00,
2014-10-31 09:05:00,51.8,52.0,30.17,SSW,202,3.0,4.0,100,0.00,,,0.01,weatherlink.com 1.10,2014-10-31 08:05:00,
2014-10-31 09:20:00,52.7,53.0,30.17,SSW,207,1.0,3.0,100,0.00,,,0.01,weatherlink.com 1.10,2014-10-31 08:20:00,
2014-10-31 09:35:00,53.3,53.0,30.17,SE,134,0.0,4.0,100,0.00,,,0.01,weatherlink.com 1.10,2014-10-31 08:35:00,
2014-10-31 09:51:00,54.0,54.0,30.17,SE,134,0.0,2.0,99,0.00,,,0.01,weatherlink.com 1.10,2014-10-31 08:51:00,
2014-10-31 10:06:00,54.9,54.0,30.17,SSE,166,0.0,3.0,98,0.00,,,0.01,weatherlink.com 1.10,2014-10-31 09:06:00,
2014-10-31 10:21:00,55.8,55.0,30.17,WSW,240,0.0,3.0,97,0.00,,,0.01,weatherlink.com 1.10,2014-10-31 09:21:00,
2014-10-31 10:36:00,56.8,55.0,30.17,SW,224,3.0,3.0,95,0.00,,,0.01,weatherlink.com 1.10,2014-10-31 09:36:00,
2014-10-31 10:51:00,57.9,55.0,30.18,ENE,77,0.0,4.0,91,0.00,,,0.01,weatherlink.com 1.10,2014-10-31 09:51:00,
2014-10-31 11:07:00,58.5,55.0,30.18,SE,143,0.0,4.0,88,0.00,,,0.01,weatherlink.com 1.10,2014-10-31 10:07:00,
2014-10-31 11:21:00,59.3,56.0,30.17,NNE,30,0.0,4.0,87,0.00,,,0.01,weatherlink.com 1.10,2014-10-31 10:21:00,
2014-10-31 11:36:00,60.2,55.0,30.17,SSW,210,1.0,6.0,84,0.00,,,0.01,weatherlink.com 1.10,2014-10-31 10:36:00,
2014-10-31 11:52:00,60.8,55.0,30.17,SW,231,0.0,7.0,82,0.00,,,0.01,weatherlink.com 1.10,2014-10-31 10:52:00,
2014-10-31 12:07:00,61.2,55.0,30.17,ESE,108,1.0,7.0,81,0.00,,,0.01,weatherlink.com 1.10,2014-10-31 11:07:00,
2014-10-31 12:22:00,61.7,56.0,30.16,SSE,150,2.0,5.0,80,0.00,,,0.01,weatherlink.com 1.10,2014-10-31 11:22:00,
2014-10-31 12:37:00,62.3,56.0,30.16,South,176,4.0,5.0,80,0.00,,,0.01,weatherlink.com 1.10,2014-10-31 11:37:00,
2014-10-31 12:52:00,62.5,56.0,30.16,SW,221,4.0,7.0,78,0.00,,,0.01,weatherlink.com 1.10,2014-10-31 11:52:00,
2014-10-31 13:07:00,62.6,56.0,30.15,SSE,148,0.0,6.0,78,0.00,,,0.01,weatherlink.com 1.10,2014-10-31 12:07:00,
2014-10-31 13:22:00,62.7,55.0,30.15,WSW,256,0.0,5.0,77,0.00,,,0.01,weatherlink.com 1.10,2014-10-31 12:22:00,
2014-10-31 13:37:00,62.8,56.0,30.15,SW,219,2.0,4.0,77,0.00,,,0.01,weatherlink.com 1.10,2014-10-31 12:37:00,
2014-10-31 13:53:00,63.0,56.0,30.15,SW,231,0.0,5.0,77,0.00,,,0.01,weatherlink.com 1.10,2014-10-31 12:53:00,
2014-10-31 14:08:00,63.2,56.0,30.14,East,82,1.0,5.0,77,0.00,,,0.01,weatherlink.com 1.10,2014-10-31 13:08:00,
2014-10-31 14:23:00,63.5,55.0,30.14,SSE,162,2.0,6.0,75,0.00,,,0.01,weatherlink.com 1.10,2014-10-31 13:23:00,
2014-10-31 14:38:00,63.9,57.0,30.14,SE,138,0.0,4.0,77,0.00,,,0.01,weatherlink.com 1.10,2014-10-31 13:38:00,
2014-10-31 14:53:00,64.7,56.0,30.14,SSW,197,0.0,3.0,74,0.00,,,0.01,weatherlink.com 1.10,2014-10-31 13:53:00,
2014-10-31 15:08:00,64.6,57.0,30.14,SSE,150,1.0,3.0,75,0.00,,,0.01,weatherlink.com 1.10,2014-10-31 14:08:00,
2014-10-31 15:23:00,65.3,57.0,30.13,SSE,159,0.0,4.0,75,0.00,,,0.01,weatherlink.com 1.10,2014-10-31 14:23:00,
2014-10-31 15:38:00,66.1,57.0,30.13,East,84,3.0,5.0,72,0.00,,,0.01,weatherlink.com 1.10,2014-10-31 14:38:00,
2014-10-31 15:53:00,66.1,56.0,30.13,SSW,208,1.0,6.0,71,0.00,,,0.01,weatherlink.com 1.10,2014-10-31 14:53:00,
2014-10-31 16:09:00,65.9,57.0,30.13,SE,136,1.0,4.0,72,0.00,,,0.01,weatherlink.com 1.10,2014-10-31 15:09:00,
2014-10-31 16:24:00,66.2,57.0,30.13,SE,142,2.0,2.0,72,0.00,,,0.01,weatherlink.com 1.10,2014-10-31 15:24:00,
2014-10-31 16:39:00,64.7,57.0,30.12,SSE,147,1.0,2.0,76,0.00,,,0.01,weatherlink.com 1.10,2014-10-31 15:39:00,
2014-10-31 16:54:00,63.5,57.0,30.12,SE,146,0.0,1.0,79,0.00,,,0.01,weatherlink.com 1.10,2014-10-31 15:54:00,
2014-10-31 17:09:00,62.4,57.0,30.12,South,170,1.0,2.0,81,0.00,,,0.01,weatherlink.com 1.10,2014-10-31 16:09:00,
2014-10-31 17:24:00,61.2,56.0,30.12,SSE,166,0.0,1.0,82,0.00,,,0.01,weatherlink.com 1.10,2014-10-31 16:24:00,
2014-10-31 17:39:00,60.1,55.0,30.13,SSE,150,0.0,0.0,84,0.00,,,0.01,weatherlink.com 1.10,2014-10-31 16:39:00,
2014-10-31 17:54:00,58.9,55.0,30.13,SSE,150,0.0,0.0,86,0.00,,,0.01,weatherlink.com 1.10,2014-10-31 16:54:00,
2014-10-31 18:09:00,58.3,55.0,30.13,SE,143,0.0,1.0,88,0.00,,,0.01,weatherlink.com 1.10,2014-10-31 17:09:00,
2014-10-31 18:24:00,57.3,54.0,30.13,SE,136,0.0,1.0,89,0.00,,,0.01,weatherlink.com 1.10,2014-10-31 17:24:00,
2014-10-31 18:39:00,57.0,55.0,30.13,SE,139,0.0,1.0,91,0.00,,,0.01,weatherlink.com 1.10,2014-10-31 17:39:00,
2014-10-31 18:55:00,57.3,55.0,30.12,SE,127,1.0,2.0,91,0.00,,,0.01,weatherlink.com 1.10,2014-10-31 17:55:00,
2014-10-31 19:10:00,57.2,54.0,30.12,SE,139,0.0,2.0,90,0.00,,,0.01,weatherlink.com 1.10,2014-10-31 18:10:00,